[[{"header":{"parameterUnit":"m.s-1","parameterCategory":1,"la1":30.2991,"la2":30.254,"lo1":-89.0895,"lo2":-89.0444,"dy":0.0017,"dx":0.0017,"nx":28,"ny":28,"refTime":"2025-02-03T03:00:00:Z","depth":0,"parameterNumber":2,"parameterNumberName":"U-component_of_WINDS"},"data":[0,0,0,0,0,0,0,0,0,0,0,0,0,0,0,0,0,0,0,0,0,0,0,0,0,0,0,0,0,0,0,0,0,0,0,0,0,0,0,0,0,0,0,0,0,0,0,0,0,0,0,0,0,0,0,0,0,0,-0.6947,-0.6946,0,-0.6882,-0.6882,-0.6881,-0.6812,-0.6812,-0.6811,-0.681,-0.6745,-0.6744,-0.6743,0,0,0,0,0,0,0,0,0,0,0,0,0,-0.7012,-0.7011,-0.6947,-0.6946,-0.6945,-0.6882,-0.6881,-0.6881,-0.6813,-0.6811,-0.681,-0.6809,-0.6745,-0.6744,-0.6743,0,0,0,0,0,0,0,0,0,0,0,0,0,-0.6969,-0.7011,-0.6947,-0.6903,-0.6899,-0.6883,-0.6881,-0.688,-0.6813,-0.6811,-0.681,-0.6809,-0.6746,-0.6744,-0.6743,-0.6765,0,0,-0.6739,-0.6739,0,0,0,0,0,0,0,0,-0.6972,-0.6967,-0.6911,-0.6906,-0.6901,-0.6854,-0.6881,-0.6842,-0.6813,-0.6846,-0.681,-0.6808,-0.6783,-0.6778,-0.6769,-0.6762,-0.6759,-0.6739,-0.6739,-0.6738,-0.6738,0,0,0,0,0,0,0,-0.6975,-0.6969,-0.6921,-0.691,-0.6904,-0.6888,-0.688,-0.6873,-0.6823,-0.6843,-0.6838,-0.6831,-0.678,-0.6771,-0.6767,-0.6758,-0.6739,-0.6738,-0.6738,-0.6737,-0.6765,-0.6766,0,0,0,0,0,0,-0.6984,-0.6972,-0.6923,-0.6919,-0.6934,-0.6888,-0.6879,-0.6871,-0.6823,-0.6814,-0.6832,-0.6828,-0.6773,-0.6769,-0.6765,-0.6786,-0.6738,-0.6737,-0.6736,-0.6763,-0.6765,-0.6767,0,0,0,0,0,0,-0.6986,-0.698,-0.6926,-0.6944,-0.6936,-0.6888,-0.6879,-0.687,-0.6861,-0.6815,-0.6806,-0.6832,-0.6772,-0.6766,-0.6765,-0.6783,-0.6736,-0.6735,-0.6762,-0.6764,-0.6766,-0.683,0,0,0,0,0,0,-0.6988,-0.6981,-0.6989,-0.6945,-0.6935,-0.6927,-0.688,-0.687,-0.6859,-0.6853,-0.6812,-0.6804,-0.6771,-0.6767,-0.6764,-0.6781,-0.6734,-0.676,-0.6763,-0.6765,-0.6826,-0.6834,-0.6841,0,0,0,0,0,-0.6991,-0.701,-0.6989,-0.6984,-0.6943,-0.6928,-0.6923,-0.6883,-0.6861,-0.6868,-0.6838,-0.6806,-0.6782,-0.6768,-0.6763,-0.678,-0.6758,-0.6762,-0.6765,-0.6823,-0.6833,-0.6841,0,0,0,0,0,0,-0.7057,-0.7003,-0.698,-0.6985,-0.6962,-0.6916,-0.6924,-0.6895,-0.6877,-0.6872,-0.6825,-0.6816,-0.682,-0.68,-0.6785,-0.6798,-0.6766,-0.6768,-0.6811,-0.682,-0.6827,-0.6832,-0.6733,0,0,0,0,0,-0.7072,-0.7064,-0.7017,-0.7026,-0.7016,-0.6972,-0.6964,-0.6936,-0.691,-0.6899,-0.687,-0.6846,-0.6833,-0.6826,-0.6811,-0.6823,-0.6814,-0.6833,-0.684,-0.6847,-0.6849,-0.6854,-0.6862,-0.6778,-0.6777,-0.6777,0,0,-0.7103,-0.7073,-0.707,-0.7039,-0.7017,-0.701,-0.6964,-0.6959,-0.6953,-0.6899,-0.6895,-0.6873,-0.6843,-0.6849,-0.685,-0.6832,-0.6871,-0.6851,-0.6856,-0.6855,-0.6858,-0.6866,-0.6873,-0.678,-0.6779,-0.6779,0,0,-0.7156,-0.7133,-0.7137,-0.7117,-0.7085,-0.7056,-0.7057,-0.7016,-0.6999,-0.6995,-0.6955,-0.6948,-0.6927,-0.6907,-0.6894,-0.6941,-0.6911,-0.6938,-0.6977,-0.6982,-0.6989,-0.6995,-0.7011,-0.7018,-0.6941,-0.6941,-0.6941,0,-0.7199,-0.7186,-0.7144,-0.714,-0.7128,-0.7079,-0.7083,-0.7066,-0.7031,-0.7024,-0.7005,-0.6977,-0.6954,-0.6954,-0.6966,-0.6957,-0.6957,-0.6942,-0.6992,-0.6997,-0.7001,-0.7016,-0.7023,-0.6945,-0.6944,-0.6944,-0.6944,0,-0.724,-0.7232,-0.724,-0.7207,-0.7196,-0.7197,-0.7155,-0.7149,-0.7122,-0.7095,-0.7092,-0.7063,-0.7041,-0.704,-0.7013,-0.7036,-0.7026,-0.7,-0.6966,-0.7014,-0.7027,-0.7032,-0.695,-0.6949,-0.6948,-0.6947,0,0,-0.7332,-0.7276,-0.728,-0.7264,-0.7226,-0.7219,-0.7218,-0.7197,-0.7192,-0.7171,-0.7168,-0.7152,-0.7128,-0.7114,-0.7085,-0.709,-0.7129,-0.7063,-0.7062,-0.7076,-0.7152,-0.7171,-0.7179,-0.7109,-0.711,-0.7111,-0.7154,0,-0.7377,-0.7372,-0.7334,-0.734,-0.7332,-0.7286,-0.7285,-0.7262,-0.7237,-0.7227,-0.72,-0.7189,-0.7158,-0.7149,-0.7152,-0.7124,-0.7144,-0.712,-0.7107,-0.7107,-0.7114,-0.7186,-0.7206,-0.7248,-0.7159,-0.716,-0.7161,0,-0.743,-0.741,-0.7415,-0.7377,-0.7372,-0.7372,-0.735,-0.7341,-0.7314,-0.7296,-0.7281,-0.7249,-0.7246,-0.7215,-0.721,-0.7195,-0.7188,-0.7173,-0.7174,-0.717,-0.7136,-0.7183,-0.7261,-0.7267,-0.7169,-0.7168,-0.7168,0,-0.7495,-0.7471,-0.747,-0.7459,-0.7414,-0.7415,-0.7397,-0.7368,-0.7358,-0.7339,-0.7332,-0.7314,-0.7304,-0.729,-0.7254,-0.7235,-0.7254,-0.722,-0.7239,-0.724,-0.7244,-0.7244,-0.7321,-0.7241,-0.7241,-0.7241,-0.7241,0,-0.7549,-0.7554,-0.7499,-0.7499,-0.7503,-0.746,-0.7466,-0.7443,-0.7418,-0.7413,-0.7373,-0.7369,-0.7322,-0.7313,-0.7285,-0.7285,-0.7281,-0.7267,-0.7259,-0.727,-0.7272,-0.7263,-0.7259,-0.7242,-0.7242,-0.7242,-0.7241,0,-0.7623,-0.7586,-0.7583,-0.7541,-0.7531,-0.7535,-0.75,-0.7498,-0.7472,-0.7466,-0.7462,-0.742,-0.7408,-0.7371,-0.7349,-0.7331,-0.7339,-0.7325,-0.7348,-0.7343,-0.7363,-0.7362,-0.7437,-0.7444,-0.7361,-0.7362,-0.7363,0,-0.7659,-0.7661,-0.762,-0.7614,-0.7597,-0.7587,-0.7576,-0.7535,-0.7526,-0.7496,-0.7498,-0.7482,-0.7467,-0.745,-0.7418,-0.7401,-0.7386,-0.7414,-0.7383,-0.7394,-0.7386,-0.7386,-0.7385,-0.742,-0.7421,-0.7422,-0.7423,0,-0.7728,-0.771,-0.7696,-0.7676,-0.7664,-0.7647,-0.7627,-0.7624,-0.7578,-0.757,-0.7557,-0.7545,-0.7523,-0.7508,-0.7486,-0.7468,-0.7438,-0.7433,-0.7436,-0.7446,-0.7459,-0.7452,-0.7365,-0.7431,-0.743,-0.7429,-0.7429,-0.7429,-0.7783,-0.7783,-0.7754,-0.774,-0.7721,-0.7703,-0.77,-0.7673,-0.7661,-0.7639,-0.7616,-0.7605,-0.7578,-0.7546,-0.753,-0.7522,-0.7505,-0.7511,-0.7512,-0.7513,-0.7518,-0.7462,-0.7518,-0.7517,-0.7517,-0.7517,-0.7517,0,-0.7849,-0.7828,-0.7815,-0.7789,-0.7778,-0.7751,-0.7728,-0.7721,-0.7712,-0.7689,-0.7675,-0.766,-0.7646,-0.7613,-0.7596,-0.7595,-0.7581,-0.7592,-0.7591,-0.7587,-0.7534,-0.7532,-0.7604,-0.7604,-0.7604,-0.7604,-0.7604,-0.7604,-0.7881,-0.788,-0.7859,-0.7847,-0.7826,-0.7815,-0.7804,-0.7788,-0.777,-0.7755,-0.7742,-0.7721,-0.7695,-0.7675,-0.7661,-0.7652,-0.7647,-0.7663,-0.7649,-0.7599,-0.7591,-0.7583,-0.7581,-0.7662,-0.7662,-0.7703,-0.7703,-0.7704]},{"header":{"parameterUnit":"m.s-1","parameterCategory":1,"la1":30.2991,"la2":30.254,"lo1":-89.0895,"lo2":-89.0444,"dy":0.0017,"dx":0.0017,"nx":28,"ny":28,"refTime":"2025-02-03T03:00:00:Z","depth":0,"parameterNumber":3,"parameterNumberName":"V-component_of_WINDS"},"data":[0,0,0,0,0,0,0,0,0,0,0,0,0,0,0,0,0,0,0,0,0,0,0,0,0,0,0,0,0,0,0,0,0,0,0,0,0,0,0,0,0,0,0,0,0,0,0,0,0,0,0,0,0,0,0,0,0,0,0.5754,0.5754,0,0.5764,0.5764,0.5764,0.5805,0.5806,0.5807,0.5808,0.5816,0.5815,0.5814,0,0,0,0,0,0,0,0,0,0,0,0,0,0.5771,0.577,0.5754,0.5754,0.5754,0.5764,0.5764,0.5764,0.5805,0.5806,0.5807,0.5808,0.5816,0.5815,0.5814,0,0,0,0,0,0,0,0,0,0,0,0,0,0.577,0.577,0.5754,0.5776,0.5778,0.5764,0.5764,0.5764,0.5804,0.5806,0.5807,0.5809,0.5816,0.5815,0.5814,0.5779,0,0,0.5811,0.5811,0,0,0,0,0,0,0,0,0.577,0.5769,0.5773,0.5774,0.5777,0.5785,0.5773,0.5769,0.5804,0.5794,0.5808,0.5809,0.5804,0.5804,0.5803,0.5779,0.578,0.5811,0.581,0.581,0.581,0,0,0,0,0,0,0,0.577,0.5769,0.5758,0.5773,0.5775,0.5785,0.5786,0.5772,0.5791,0.5795,0.5798,0.5799,0.5805,0.5803,0.5803,0.578,0.5811,0.581,0.5809,0.5809,0.5729,0.5727,0,0,0,0,0,0,0.5767,0.5769,0.5758,0.5758,0.5777,0.5783,0.5785,0.5781,0.5791,0.5794,0.5798,0.5801,0.5805,0.5804,0.5804,0.5764,0.581,0.5809,0.5808,0.573,0.5729,0.5727,0,0,0,0,0,0,0.5767,0.5766,0.5757,0.5764,0.5764,0.5782,0.5776,0.578,0.5778,0.5793,0.5796,0.5792,0.5806,0.5805,0.5785,0.5764,0.5808,0.5807,0.5732,0.573,0.5728,0.5683,0,0,0,0,0,0,0.5768,0.5766,0.5753,0.5764,0.5764,0.5739,0.5775,0.5779,0.5776,0.5781,0.5789,0.5792,0.5807,0.5786,0.5784,0.5764,0.5807,0.5734,0.5731,0.5729,0.5686,0.5679,0.5673,0,0,0,0,0,0.5768,0.5739,0.5752,0.575,0.5748,0.5737,0.5737,0.5756,0.5775,0.5762,0.5771,0.5791,0.5767,0.5784,0.5782,0.5761,0.5736,0.5732,0.5729,0.5689,0.5681,0.5674,0,0,0,0,0,0,0.5724,0.5741,0.5755,0.5729,0.5731,0.5744,0.5728,0.5746,0.5743,0.5747,0.5769,0.5771,0.5748,0.5752,0.5771,0.5728,0.5755,0.5751,0.5725,0.5718,0.5711,0.5711,0.5806,0,0,0,0,0,0.5711,0.5702,0.5717,0.5692,0.5693,0.571,0.5707,0.5721,0.5724,0.5725,0.5733,0.5736,0.5729,0.5723,0.5718,0.5687,0.569,0.5672,0.5666,0.566,0.5656,0.5641,0.5634,0.5716,0.5716,0.5716,0,0,0.5685,0.5693,0.5685,0.5684,0.5687,0.5677,0.5711,0.5698,0.5691,0.5723,0.5705,0.5711,0.5715,0.569,0.5679,0.5693,0.5634,0.5656,0.5651,0.5651,0.5637,0.5629,0.5622,0.5713,0.5714,0.5714,0,0,0.5631,0.5636,0.5617,0.562,0.5625,0.5637,0.5633,0.5643,0.5649,0.5631,0.5655,0.5647,0.5634,0.5636,0.5635,0.5583,0.5602,0.5581,0.5547,0.5532,0.5526,0.552,0.5502,0.5495,0.5577,0.5577,0.5577,0,0.5597,0.5583,0.5604,0.559,0.5589,0.5619,0.5599,0.5601,0.5604,0.5602,0.5618,0.5603,0.5608,0.5584,0.5571,0.557,0.5565,0.558,0.5525,0.552,0.5515,0.5497,0.5491,0.5574,0.5575,0.5575,0.5575,0,0.5541,0.5531,0.5514,0.5518,0.5514,0.5498,0.5516,0.551,0.5525,0.5535,0.5517,0.5524,0.552,0.5516,0.5529,0.5494,0.5502,0.5521,0.5549,0.5504,0.5488,0.5482,0.5571,0.5572,0.5572,0.5573,0,0,0.5459,0.5475,0.5469,0.5471,0.548,0.5472,0.5457,0.5454,0.5449,0.545,0.5438,0.5427,0.5445,0.5444,0.5458,0.5445,0.5404,0.5465,0.5466,0.5454,0.5365,0.5351,0.5343,0.5416,0.5415,0.5414,0.5365,0,0.5408,0.5384,0.5403,0.5374,0.5365,0.5394,0.5381,0.5384,0.5394,0.5387,0.5397,0.5389,0.5413,0.5413,0.5401,0.5411,0.5386,0.5415,0.5405,0.5404,0.5403,0.5335,0.532,0.5273,0.5359,0.5358,0.5357,0,0.5345,0.5345,0.5316,0.5327,0.5324,0.5312,0.5312,0.5305,0.531,0.5318,0.5317,0.5335,0.5321,0.5348,0.5329,0.5348,0.5345,0.535,0.5348,0.5348,0.5378,0.5333,0.5259,0.5252,0.5348,0.5349,0.5349,0,0.5289,0.5281,0.5263,0.5264,0.5276,0.5267,0.5272,0.5279,0.5276,0.5275,0.5274,0.5272,0.527,0.5268,0.5285,0.5303,0.5263,0.5292,0.5269,0.5269,0.5259,0.5259,0.5183,0.5257,0.5257,0.5257,0.5258,0,0.523,0.5211,0.5238,0.5226,0.5206,0.5228,0.5208,0.5216,0.5221,0.5212,0.5236,0.5227,0.525,0.5243,0.5256,0.5238,0.5237,0.5243,0.5247,0.5241,0.524,0.5239,0.5243,0.5256,0.5256,0.5256,0.5257,0,0.5163,0.518,0.5162,0.5177,0.518,0.5164,0.5176,0.5166,0.5178,0.5165,0.5164,0.5181,0.5175,0.5191,0.5187,0.5196,0.517,0.5179,0.5169,0.5171,0.5148,0.515,0.5068,0.5059,0.5138,0.5138,0.5137,0,0.5125,0.5111,0.5124,0.512,0.5124,0.5116,0.5114,0.5136,0.5132,0.5138,0.5127,0.5122,0.512,0.5107,0.512,0.5116,0.5125,0.5097,0.5125,0.512,0.5125,0.5126,0.5125,0.5091,0.509,0.5089,0.5089,0,0.5054,0.5063,0.506,0.5059,0.5056,0.5056,0.5058,0.5053,0.5076,0.5071,0.5065,0.5063,0.5059,0.5054,0.5054,0.5058,0.5077,0.508,0.5075,0.5068,0.5063,0.5066,0.5153,0.5082,0.5082,0.5083,0.5083,0.5083,0.5,0.499,0.4998,0.4993,0.4997,0.4998,0.499,0.5001,0.4996,0.4995,0.5008,0.4999,0.5005,0.5006,0.5009,0.5002,0.5015,0.5007,0.5005,0.5003,0.4999,0.5064,0.5002,0.5003,0.5003,0.5003,0.5003,0,0.4931,0.4938,0.4933,0.4936,0.4932,0.4951,0.4954,0.495,0.4942,0.4946,0.4944,0.4937,0.4932,0.4944,0.4942,0.4934,0.4942,0.4932,0.4933,0.4934,0.4988,0.4993,0.4926,0.4926,0.4926,0.4926,0.4926,0.4926,0.4895,0.4878,0.4889,0.4874,0.4881,0.4873,0.4874,0.4875,0.4879,0.487,0.4867,0.4875,0.4883,0.4881,0.4878,0.4881,0.4879,0.4866,0.4873,0.4923,0.493,0.4937,0.4942,0.4866,0.4866,0.482,0.4819,0.4819]}]]